[[{"header":{"parameterUnit":"m.s-1","parameterCategory":1,"la1":30.2991,"la2":30.254,"lo1":-89.0895,"lo2":-89.0444,"dy":0.0017,"dx":0.0017,"nx":28,"ny":28,"refTime":"2024-04-23T21:00:00:Z","depth":0,"parameterNumber":2,"parameterNumberName":"U-component_of_WINDS"},"data":[0,0,0,0,0,0,0,0,0,0,0,0,0,0,0,0,0,0,0,0,0,0,0,0,0,0,0,0,0,0,0,0,0,0,0,0,0,0,0,0,0,0,0,0,0,0,0,0,0,0,0,0,0,0,0,0,0,0,-1.4144,-1.4144,0,-1.4147,-1.4147,-1.4147,-1.4129,-1.4128,-1.4128,-1.4127,-1.4131,-1.4132,-1.4132,0,0,0,0,0,0,0,0,0,0,0,0,0,-1.4123,-1.4124,-1.4144,-1.4144,-1.4144,-1.4147,-1.4147,-1.4147,-1.4129,-1.4128,-1.4128,-1.4127,-1.4131,-1.4131,-1.4132,0,0,0,0,0,0,0,0,0,0,0,0,0,-1.413,-1.4124,-1.4144,-1.4135,-1.4135,-1.4147,-1.4147,-1.4147,-1.4129,-1.4128,-1.4128,-1.4127,-1.4131,-1.4131,-1.4132,-1.4153,0,0,-1.4135,-1.4135,0,0,0,0,0,0,0,0,-1.413,-1.4131,-1.4136,-1.4136,-1.4135,-1.4137,-1.4141,-1.4149,-1.4129,-1.4131,-1.4127,-1.4126,-1.4134,-1.4134,-1.4136,-1.4153,-1.4154,-1.4135,-1.4136,-1.4136,-1.4136,0,0,0,0,0,0,0,-1.4129,-1.4131,-1.4145,-1.4137,-1.4136,-1.4132,-1.4132,-1.4143,-1.4137,-1.4131,-1.413,-1.413,-1.4133,-1.4136,-1.4136,-1.4154,-1.4135,-1.4136,-1.4136,-1.4137,-1.4188,-1.4189,0,0,0,0,0,0,-1.413,-1.413,-1.4145,-1.4145,-1.413,-1.4133,-1.4133,-1.4137,-1.4137,-1.4136,-1.4131,-1.4129,-1.4135,-1.4135,-1.4136,-1.4161,-1.4136,-1.4137,-1.4137,-1.4188,-1.4189,-1.4189,0,0,0,0,0,0,-1.4129,-1.4131,-1.4145,-1.4137,-1.4139,-1.4134,-1.4139,-1.4137,-1.414,-1.4136,-1.4135,-1.4135,-1.4134,-1.4135,-1.4149,-1.4161,-1.4137,-1.4138,-1.4187,-1.4188,-1.4189,-1.421,0,0,0,0,0,0,-1.4129,-1.4131,-1.4139,-1.4138,-1.4139,-1.4157,-1.4139,-1.4138,-1.4142,-1.414,-1.414,-1.4139,-1.4133,-1.4148,-1.415,-1.4162,-1.4139,-1.4185,-1.4187,-1.4189,-1.4208,-1.4212,-1.4215,0,0,0,0,0,-1.4128,-1.4145,-1.4139,-1.4141,-1.4149,-1.4158,-1.4159,-1.4152,-1.4143,-1.415,-1.4148,-1.4139,-1.4159,-1.415,-1.4152,-1.4164,-1.4185,-1.4187,-1.4188,-1.4207,-1.4211,-1.4215,0,0,0,0,0,0,-1.4147,-1.4144,-1.4138,-1.4155,-1.4157,-1.4155,-1.4164,-1.4157,-1.4162,-1.416,-1.4152,-1.4152,-1.4167,-1.4167,-1.4156,-1.4184,-1.417,-1.4173,-1.4184,-1.4188,-1.4191,-1.4191,-1.4139,0,0,0,0,0,-1.4153,-1.4161,-1.4158,-1.4173,-1.4174,-1.4169,-1.4173,-1.4168,-1.417,-1.417,-1.4169,-1.4172,-1.4179,-1.4183,-1.4189,-1.4209,-1.4208,-1.4218,-1.4221,-1.4224,-1.4226,-1.4237,-1.4241,-1.4196,-1.4196,-1.4196,0,0,-1.4166,-1.4166,-1.4171,-1.4177,-1.4178,-1.4186,-1.417,-1.418,-1.4186,-1.4172,-1.4185,-1.4184,-1.4186,-1.4203,-1.4211,-1.4203,-1.4239,-1.4227,-1.4229,-1.4229,-1.4239,-1.4243,-1.4247,-1.4197,-1.4197,-1.4197,0,0,-1.4194,-1.4194,-1.4206,-1.4208,-1.4209,-1.4206,-1.4209,-1.4208,-1.4207,-1.4221,-1.421,-1.4218,-1.423,-1.4232,-1.4235,-1.4264,-1.4256,-1.4266,-1.4283,-1.4294,-1.4297,-1.43,-1.4311,-1.4315,-1.4268,-1.4268,-1.4268,0,-1.4209,-1.4221,-1.4214,-1.4224,-1.4227,-1.4215,-1.4228,-1.423,-1.4233,-1.4236,-1.4228,-1.4243,-1.4244,-1.4261,-1.4268,-1.4271,-1.4274,-1.4266,-1.4297,-1.43,-1.4303,-1.4313,-1.4317,-1.427,-1.427,-1.4269,-1.4269,0,-1.424,-1.4249,-1.4259,-1.4263,-1.4267,-1.4278,-1.4273,-1.4279,-1.4273,-1.4271,-1.4285,-1.4285,-1.4291,-1.4295,-1.429,-1.4312,-1.4307,-1.4299,-1.4284,-1.4309,-1.4318,-1.4322,-1.4271,-1.4271,-1.4271,-1.427,0,0,-1.4279,-1.4279,-1.4283,-1.4284,-1.4286,-1.4292,-1.4304,-1.431,-1.4315,-1.4318,-1.4327,-1.4338,-1.433,-1.4333,-1.4328,-1.4337,-1.4361,-1.4328,-1.4327,-1.4334,-1.4385,-1.4391,-1.4396,-1.4356,-1.4356,-1.4357,-1.4385,0,-1.4306,-1.4324,-1.4319,-1.4338,-1.4346,-1.4335,-1.4345,-1.4347,-1.4345,-1.4352,-1.435,-1.4358,-1.4347,-1.4349,-1.4358,-1.4356,-1.4371,-1.4354,-1.4364,-1.4365,-1.4364,-1.44,-1.4407,-1.4433,-1.4388,-1.4389,-1.4389,0,-1.4339,-1.4344,-1.4363,-1.4364,-1.4367,-1.4376,-1.4381,-1.4388,-1.439,-1.4389,-1.4392,-1.4386,-1.4397,-1.4384,-1.44,-1.4388,-1.4392,-1.4392,-1.4393,-1.4393,-1.4378,-1.4402,-1.4442,-1.4445,-1.4395,-1.4394,-1.4394,0,-1.4365,-1.4376,-1.439,-1.4392,-1.4392,-1.4399,-1.44,-1.4401,-1.4406,-1.441,-1.4413,-1.4419,-1.4423,-1.4428,-1.4423,-1.4414,-1.444,-1.4426,-1.4439,-1.4439,-1.4445,-1.4444,-1.4486,-1.4448,-1.4448,-1.4448,-1.4448,0,-1.4395,-1.4408,-1.4402,-1.441,-1.4424,-1.4417,-1.4432,-1.4431,-1.4433,-1.4441,-1.4432,-1.444,-1.4434,-1.4442,-1.4438,-1.4452,-1.4454,-1.4453,-1.4452,-1.4453,-1.4453,-1.4456,-1.4453,-1.4449,-1.4449,-1.4448,-1.4448,0,-1.4427,-1.4423,-1.4437,-1.4437,-1.4437,-1.4447,-1.4447,-1.4455,-1.4453,-1.4464,-1.4466,-1.4463,-1.4471,-1.4467,-1.4476,-1.4474,-1.4492,-1.4489,-1.4491,-1.449,-1.4503,-1.4502,-1.4547,-1.4553,-1.4512,-1.4512,-1.4512,0,-1.4446,-1.4456,-1.4456,-1.4461,-1.4463,-1.447,-1.4475,-1.4469,-1.4474,-1.4478,-1.4485,-1.4493,-1.4499,-1.4513,-1.4512,-1.4519,-1.4515,-1.4531,-1.4516,-1.4518,-1.4516,-1.4515,-1.4516,-1.4534,-1.4534,-1.4534,-1.4535,0,-1.4481,-1.4479,-1.4485,-1.4491,-1.4496,-1.4501,-1.4504,-1.4509,-1.4503,-1.4509,-1.4518,-1.4523,-1.4532,-1.454,-1.4546,-1.4547,-1.454,-1.4539,-1.4543,-1.4544,-1.4545,-1.4545,-1.4499,-1.4538,-1.4538,-1.4538,-1.4537,-1.4537,-1.4507,-1.4515,-1.4517,-1.4524,-1.4527,-1.453,-1.4538,-1.4537,-1.4544,-1.4551,-1.4547,-1.4557,-1.456,-1.4568,-1.457,-1.4578,-1.4572,-1.4577,-1.4578,-1.4579,-1.4581,-1.4544,-1.4579,-1.4579,-1.4579,-1.4579,-1.4579,0,-1.4541,-1.4542,-1.4549,-1.4555,-1.4561,-1.4553,-1.4557,-1.4563,-1.4572,-1.4575,-1.4581,-1.4591,-1.4599,-1.4599,-1.4606,-1.4612,-1.4609,-1.4615,-1.4614,-1.4614,-1.4586,-1.4582,-1.4617,-1.4617,-1.4617,-1.4617,-1.4617,-1.4617,-1.456,-1.4573,-1.4571,-1.4586,-1.4587,-1.4596,-1.4599,-1.4603,-1.4605,-1.4617,-1.4623,-1.4623,-1.4625,-1.4632,-1.4639,-1.4639,-1.4642,-1.4648,-1.4647,-1.462,-1.4616,-1.4613,-1.4609,-1.4649,-1.4649,-1.4674,-1.4675,-1.4675]},{"header":{"parameterUnit":"m.s-1","parameterCategory":1,"la1":30.2991,"la2":30.254,"lo1":-89.0895,"lo2":-89.0444,"dy":0.0017,"dx":0.0017,"nx":28,"ny":28,"refTime":"2024-04-23T21:00:00:Z","depth":0,"parameterNumber":3,"parameterNumberName":"V-component_of_WINDS"},"data":[0,0,0,0,0,0,0,0,0,0,0,0,0,0,0,0,0,0,0,0,0,0,0,0,0,0,0,0,0,0,0,0,0,0,0,0,0,0,0,0,0,0,0,0,0,0,0,0,0,0,0,0,0,0,0,0,0,0,3.8513,3.8514,0,3.855,3.855,3.8551,3.8533,3.8532,3.8532,3.8531,3.8564,3.8566,3.8567,0,0,0,0,0,0,0,0,0,0,0,0,0,3.8426,3.8428,3.8513,3.8514,3.8514,3.855,3.855,3.8551,3.8534,3.8532,3.8531,3.853,3.8563,3.8565,3.8568,0,0,0,0,0,0,0,0,0,0,0,0,0,3.8463,3.8428,3.8513,3.851,3.851,3.855,3.855,3.8551,3.8534,3.8532,3.8531,3.853,3.8563,3.8565,3.8568,3.8611,0,0,3.8576,3.8577,0,0,0,0,0,0,0,0,3.8461,3.8466,3.851,3.851,3.8511,3.8536,3.8531,3.8571,3.8534,3.8525,3.8531,3.8529,3.8555,3.8559,3.8568,3.8613,3.8614,3.8576,3.8578,3.8579,3.8579,0,0,0,0,0,0,0,3.8458,3.8465,3.8528,3.8511,3.8511,3.8506,3.851,3.8539,3.8547,3.8525,3.8524,3.8529,3.8555,3.8566,3.8569,3.8615,3.8576,3.8578,3.858,3.8581,3.8696,3.8698,0,0,0,0,0,0,3.8456,3.8463,3.8526,3.8529,3.8482,3.8508,3.8513,3.8529,3.8547,3.8548,3.853,3.8528,3.8562,3.8566,3.857,3.8621,3.8579,3.8581,3.8583,3.8695,3.8697,3.8698,0,0,0,0,0,0,3.8455,3.8462,3.8525,3.8495,3.8503,3.8511,3.853,3.853,3.8541,3.855,3.8551,3.854,3.8561,3.8566,3.8601,3.8622,3.8582,3.8585,3.8693,3.8695,3.8698,3.8725,0,0,0,0,0,0,3.8452,3.8462,3.8479,3.8496,3.8505,3.8557,3.8531,3.8532,3.8546,3.8544,3.856,3.8561,3.856,3.8598,3.8604,3.8625,3.8587,3.8691,3.8694,3.8697,3.8722,3.8728,3.8733,0,0,0,0,0,3.8449,3.8485,3.848,3.8488,3.8527,3.8558,3.8563,3.8563,3.8548,3.8564,3.8571,3.856,3.862,3.8601,3.8608,3.8631,3.869,3.8693,3.8697,3.872,3.8727,3.8733,0,0,0,0,0,0,3.8468,3.8487,3.8482,3.8524,3.854,3.8555,3.8576,3.857,3.8589,3.8586,3.8584,3.8588,3.8624,3.8631,3.861,3.8674,3.8652,3.8657,3.8668,3.8674,3.868,3.8676,3.8589,0,0,0,0,0,3.8478,3.8503,3.8517,3.8553,3.8561,3.8568,3.8581,3.858,3.8596,3.8602,3.861,3.8625,3.8647,3.8661,3.8682,3.8724,3.8727,3.8743,3.8748,3.8753,3.8756,3.8779,3.8786,3.8709,3.8709,3.8709,0,0,3.8496,3.851,3.8525,3.8557,3.8569,3.8594,3.8573,3.86,3.8618,3.8605,3.8639,3.8646,3.8662,3.8701,3.8719,3.8708,3.8778,3.8757,3.876,3.8762,3.8783,3.879,3.8796,3.8712,3.8711,3.8711,0,0,3.8544,3.8557,3.8588,3.8601,3.862,3.8625,3.8632,3.8649,3.8653,3.8688,3.8678,3.87,3.8737,3.8749,3.876,3.8813,3.8804,3.882,3.8847,3.8869,3.8875,3.888,3.8899,3.8905,3.8824,3.8824,3.8824,0,3.8564,3.8603,3.8604,3.8633,3.8647,3.8638,3.8669,3.8681,3.8705,3.8714,3.8703,3.8751,3.8761,3.8802,3.8815,3.8825,3.8832,3.8818,3.8874,3.888,3.8885,3.8902,3.8909,3.8826,3.8826,3.8826,3.8826,0,3.8627,3.8654,3.8677,3.8702,3.8719,3.8748,3.8753,3.8769,3.8767,3.8772,3.8807,3.882,3.8843,3.8853,3.885,3.8893,3.8886,3.8875,3.8853,3.8894,3.891,3.8916,3.8829,3.8828,3.8827,3.8827,0,0,3.8685,3.8713,3.8721,3.8732,3.8754,3.8774,3.8803,3.8827,3.884,3.8858,3.8881,3.8914,3.8904,3.8917,3.8915,3.8935,3.8975,3.8921,3.8921,3.893,3.9023,3.9031,3.9039,3.897,3.8971,3.8972,3.9021,0,3.8734,3.8786,3.8788,3.8835,3.886,3.8852,3.8877,3.8893,3.8899,3.8919,3.8925,3.8948,3.8934,3.8941,3.896,3.8966,3.8994,3.8963,3.899,3.8991,3.8985,3.9047,3.9055,3.9101,3.9028,3.9029,3.903,0,3.8796,3.8817,3.8867,3.8885,3.8895,3.8918,3.894,3.8961,3.8978,3.8981,3.8995,3.8992,3.902,3.8999,3.9038,3.9017,3.9028,3.9033,3.9035,3.9036,3.9012,3.9049,3.9116,3.9122,3.904,3.9039,3.9038,0,3.8833,3.8873,3.8908,3.8919,3.8941,3.8957,3.8967,3.8983,3.8997,3.9016,3.9025,3.9047,3.9059,3.9076,3.9078,3.9062,3.9117,3.9095,3.9119,3.9119,3.9129,3.9128,3.9197,3.9139,3.9139,3.9139,3.9138,0,3.8885,3.8916,3.8925,3.8947,3.898,3.8983,3.9016,3.9024,3.9039,3.9061,3.9056,3.9076,3.9079,3.9099,3.9101,3.9133,3.9138,3.9141,3.914,3.914,3.914,3.9147,3.9143,3.914,3.914,3.914,3.9139,0,3.8931,3.8939,3.8977,3.8995,3.9001,3.9025,3.904,3.906,3.9066,3.9094,3.9101,3.911,3.9134,3.9139,3.9167,3.9168,3.9206,3.9203,3.92,3.92,3.9222,3.922,3.9297,3.9307,3.9243,3.9244,3.9244,0,3.8963,3.8987,3.9009,3.9024,3.9035,3.9059,3.9075,3.9078,3.9094,3.9116,3.9133,3.9157,3.9177,3.9216,3.9224,3.9246,3.9243,3.9269,3.9246,3.9245,3.9242,3.924,3.9242,3.9273,3.9273,3.9274,3.9274,0,3.902,3.9023,3.9046,3.907,3.9089,3.9108,3.9126,3.9138,3.9144,3.9162,3.9188,3.9203,3.9233,3.9257,3.9279,3.9288,3.9282,3.9282,3.9288,3.9288,3.9285,3.9286,3.9211,3.928,3.9279,3.9279,3.9278,3.9278,3.9059,3.908,3.9099,3.9124,3.9138,3.9156,3.9175,3.9185,3.9207,3.9232,3.9233,3.9261,3.9278,3.9307,3.9317,3.9338,3.933,3.9339,3.9342,3.9344,3.9345,3.9283,3.9343,3.9342,3.9342,3.9342,3.9342,0,3.9114,3.9127,3.915,3.9176,3.9196,3.9191,3.9211,3.9228,3.9253,3.9269,3.9289,3.9319,3.9342,3.9353,3.9376,3.9391,3.9389,3.9397,3.9395,3.9397,3.9352,3.9344,3.9398,3.9398,3.9398,3.9398,3.9398,3.9398,3.9145,3.918,3.9185,3.9227,3.9238,3.9267,3.9279,3.9294,3.9307,3.9341,3.9361,3.9369,3.9383,3.9407,3.9428,3.9431,3.9439,3.9448,3.9449,3.9406,3.94,3.9395,3.9387,3.945,3.945,3.9492,3.9492,3.9493]}]]